Погода в Вежах

Россия / Калужская область     54°12′03″N   34°22′11″E
темп.,
°C
ветер,
м/с
пор.,
м/с
влажн.,
%
обл.,
%
осадки,
мм/ч
давл.,
гПа
погр.,
м
16 сентября, чт
чт1600:00+5сз36795 0.0 101899
03:00+3сз36855 0.0 1019117
06:00+2ссз35965 0.0 1020108
09:00+7с357312 0.0 1021519
12:00+9с3360100 0.0 10211125
15:00+10ссз335680 0.0 10211163
18:00+8с226392 0.0 1021893
21:00+6ссв2266100 0.0 102166
17 сентября, пт
пт1700:00+3св2277100 0.0 102124
03:00+3всв2277100 0.0 102025
06:00+3всв2275100 0.0 102025
09:00+7в3561100 0.0 1019442
12:00+10в4451100 0.0 10181071
15:00+12в4446100 0.0 10171280
18:00+10всв4854100 0.0 1017385
21:00+7в5126099 0.0 1019407
18 сентября, сб
сб1800:00+5в61361100 0.0 1020522
03:00+4в6146776 0.0 1020443
06:00+3в71667100 0.0 1020490
09:00+6в81556100 0.0 1020772
12:00+10в91245100 0.0 10201139
15:00+11в81243100 0.0 10191158
18:00+10в71241100 0.0 10191137
21:00+9в81441100 0.0 1018969
19 сентября, вс
вс1900:00+9в71342100 0.0 1018926
03:00+7в81460100 0.3 1018649
06:00+5в61486100 1.6 1018619
09:00+5в71590100 4.4 1018585
12:00+4в81592100 2.3 1018632
15:00+5в81594100 7.8 1017789
18:00+5всв81494100 4.3 1016962
21:00+4всв81596100 7.3 1017970
20 сентября, пн
пн2000:00+3всв71497100 1.4 1016821
03:00+4св71397100 2.7 1015877
06:00+4св71497100 0.6 1014738
09:00+5всв71495100 0.9 1014785
12:00+5всв71494100 0.0 1015728
15:00+5всв81493100 0.1 1015755
18:00+5св81593100 1.0 1016761
21:00+5св71594100 3.8 1015830